This is the latest recevied weather packets stored in our database for station/object WE8L. If no packets are shown the sender has not sent any weather packets the latest 10 day(s).
| Time | Temp. | Humidity | Pressure | Rain* | Wind** | Luminosity | Snow |
|---|---|---|---|---|---|---|---|
| 1777764190 | 10.56° C | 46% | 1019.7 hPa | 0 mm | - | 26 W/m² | - |
| 1777763886 | 10.56° C | 45% | 1019.8 hPa | 0 mm | - | 29 W/m² | - |
| 1777763584 | 10.56° C | 48% | 1019.7 hPa | 0 mm | - | 27 W/m² | - |
| 1777763282 | 10° C | 46% | 1019.8 hPa | 0 mm | - | 23 W/m² | - |
| 1777762980 | 10.56° C | 45% | 1019.5 hPa | 0 mm | - | 21 W/m² | - |
| 1777762676 | 10.56° C | 44% | 1019.6 hPa | 0 mm | - | 24 W/m² | - |
| 1777762373 | 11.11° C | 46% | 1019.6 hPa | 0 mm | - | 35 W/m² | - |
| 1777762069 | 11.11° C | 41% | 1019.6 hPa | 0 mm | - | 31 W/m² | - |
| 1777761766 | 11.11° C | 42% | 1019.6 hPa | 0 mm | - | 37 W/m² | - |
| 1777761464 | 11.67° C | 42% | 1019.4 hPa | 0 mm | - | 30 W/m² | - |
| 1777761162 | 11.67° C | 42% | 1019.4 hPa | 0 mm | - | 32 W/m² | - |
| 1777760859 | 11.67° C | 42% | 1019.2 hPa | 0 mm | - | 53 W/m² | - |
| 1777760556 | 11.67° C | 42% | 1019.5 hPa | 0 mm | - | 59 W/m² | - |
| 1777760251 | 11.11° C | 42% | 1019.4 hPa | 0 mm | - | 57 W/m² | - |
| 1777759949 | 11.11° C | 44% | 1019.3 hPa | 0 mm | - | 52 W/m² | - |
| 1777759645 | 11.11° C | 43% | 1019.4 hPa | 0 mm | - | 48 W/m² | - |
| 1777759341 | 11.11° C | 45% | 1019.3 hPa | 0 mm | - | 53 W/m² | - |
| 1777759038 | 11.67° C | 43% | 1019.4 hPa | 0 mm | - | 55 W/m² | - |
| 1777758735 | 11.67° C | 41% | 1019.2 hPa | 0 mm | - | 56 W/m² | - |
| 1777758433 | 11.67° C | 41% | 1019.2 hPa | 0 mm | - | 53 W/m² | - |
| 1777758130 | 11.67° C | 41% | 1019.1 hPa | 0 mm | - | 64 W/m² | - |
| 1777757827 | 11.11° C | 41% | 1019.2 hPa | 0 mm | - | 69 W/m² | - |
| 1777757524 | 11.11° C | 42% | 1019.2 hPa | 0 mm | - | 62 W/m² | - |
| 1777757222 | 11.67° C | 41% | 1019.2 hPa | 0 mm | - | 59 W/m² | - |
| 1777756920 | 11.67° C | 43% | 1019.3 hPa | 0 mm | - | 63 W/m² | - |
* Rain latest hour (hover to see other rain measurements)
** Current wind speed in m/s (hover to see current wind gust speed)